StationID,Date,MaxTemp,MinTemp,Precipitation,Snowfall,SnowDepth
"USC00504701","1940-08-01",60.08,55.94,498.00,0.00,
"USC00504701","1940-08-02",60.08,51.98,381.00,0.00,
"USC00504701","1940-08-03",62.96,55.04,188.00,0.00,
"USC00504701","1940-08-04",62.06,57.02,960.00,0.00,
"USC00504701","1940-08-05",60.08,53.96,137.00,0.00,
"USC00504701","1940-08-06",60.08,48.02,175.00,0.00,
"USC00504701","1940-08-07",57.02,51.98,224.00,0.00,
"USC00504701","1940-08-08",57.02,51.08,196.00,0.00,
"USC00504701","1940-08-09",57.02,51.08,206.00,0.00,
"USC00504701","1940-08-10",59.00,53.96,8.00,0.00,
"USC00504701","1940-08-11",60.98,51.08,196.00,0.00,
"USC00504701","1940-08-12",60.08,48.02,0.00,0.00,
"USC00504701","1940-08-13",60.98,51.98,221.00,0.00,
"USC00504701","1940-08-14",60.98,48.02,3.00,0.00,
"USC00504701","1940-08-15",60.98,50.00,38.00,0.00,
"USC00504701","1940-08-16",60.98,50.00,165.00,0.00,
"USC00504701","1940-08-17",60.98,55.04,472.00,0.00,
"USC00504701","1940-08-18",64.04,51.98,3.00,0.00,
"USC00504701","1940-08-19",62.06,50.00,0.00,0.00,
"USC00504701","1940-08-20",60.98,46.94,0.00,0.00,
"USC00504701","1940-08-21",60.98,50.00,0.00,0.00,
"USC00504701","1940-08-22",60.98,55.04,0.00,0.00,
"USC00504701","1940-08-23",60.98,53.96,147.00,0.00,
"USC00504701","1940-08-24",57.92,51.98,155.00,0.00,
"USC00504701","1940-08-25",60.08,51.08,114.00,0.00,
"USC00504701","1940-08-26",66.92,53.96,15.00,0.00,
"USC00504701","1940-08-27",66.02,55.04,28.00,0.00,
"USC00504701","1940-08-28",60.08,53.06,66.00,0.00,
"USC00504701","1940-08-29",57.92,51.98,348.00,0.00,
"USC00504701","1940-08-30",57.02,51.98,198.00,0.00,
"USC00504701","1940-08-31",60.08,46.04,0.00,0.00,
"USC00504701","1940-09-01",64.04,46.94,0.00,0.00,
"USC00504701","1940-09-02",62.06,48.92,0.00,0.00,
"USC00504701","1940-09-03",60.08,48.92,295.00,0.00,
"USC00504701","1940-09-04",57.92,53.06,307.00,0.00,
"USC00504701","1940-09-05",57.02,51.98,356.00,0.00,
"USC00504701","1940-09-06",60.08,53.06,226.00,0.00,
"USC00504701","1940-09-07",66.02,48.02,0.00,0.00,
"USC00504701","1940-09-08",66.02,48.02,0.00,0.00,
"USC00504701","1940-09-09",62.06,53.96,5.00,0.00,
"USC00504701","1940-09-10",57.92,46.04,0.00,0.00,
"USC00504701","1940-09-11",57.92,48.92,18.00,0.00,
"USC00504701","1940-09-12",55.94,51.08,206.00,0.00,
"USC00504701","1940-09-13",57.02,51.08,0.00,0.00,
"USC00504701","1940-09-14",57.02,48.92,48.00,0.00,
"USC00504701","1940-09-15",55.04,51.08,569.00,0.00,
"USC00504701","1940-09-16",55.04,48.02,211.00,0.00,
"USC00504701","1940-09-17",53.96,46.94,170.00,0.00,
"USC00504701","1940-09-18",53.96,46.94,394.00,0.00,
"USC00504701","1940-09-19",55.04,46.94,152.00,0.00,
"USC00504701","1940-09-20",53.96,46.94,312.00,0.00,
"USC00504701","1940-09-21",57.92,46.94,335.00,0.00,
"USC00504701","1940-09-22",60.98,53.06,409.00,0.00,
"USC00504701","1940-09-23",73.04,48.02,0.00,0.00,
"USC00504701","1940-09-24",66.02,51.08,56.00,0.00,
"USC00504701","1940-09-25",59.00,42.08,13.00,0.00,
"USC00504701","1940-09-26",60.98,55.04,53.00,0.00,
"USC00504701","1940-09-27",62.06,55.04,284.00,0.00,
"USC00504701","1940-09-28",55.04,50.00,577.00,0.00,
"USC00504701","1940-09-29",55.04,51.08,323.00,0.00,
"USC00504701","1940-09-30",53.06,41.00,18.00,0.00,
"USC00504701","1940-10-01",53.96,46.04,0.00,0.00,
"USC00504701","1940-10-02",50.00,48.02,178.00,0.00,
"USC00504701","1940-10-03",51.98,44.06,66.00,0.00,
"USC00504701","1940-10-04",51.08,42.98,91.00,0.00,
"USC00504701","1940-10-05",53.96,48.02,0.00,0.00,
"USC00504701","1940-10-06",55.94,48.92,46.00,0.00,
"USC00504701","1940-10-07",55.94,48.92,236.00,0.00,
"USC00504701","1940-10-08",51.98,46.04,277.00,0.00,
"USC00504701","1940-10-09",55.04,48.02,20.00,0.00,
"USC00504701","1940-10-10",55.94,46.04,64.00,0.00,
"USC00504701","1940-10-11",50.00,44.96,196.00,0.00,
"USC00504701","1940-10-12",50.00,39.92,0.00,0.00,
"USC00504701","1940-10-13",48.92,41.00,0.00,0.00,
"USC00504701","1940-10-14",51.98,46.04,211.00,0.00,
"USC00504701","1940-10-15",51.98,44.96,69.00,0.00,
"USC00504701","1940-10-16",51.08,46.04,48.00,0.00,
"USC00504701","1940-10-17",48.92,37.04,46.00,0.00,
"USC00504701","1940-10-18",50.00,46.04,81.00,0.00,
"USC00504701","1940-10-19",57.02,46.04,297.00,0.00,
"USC00504701","1940-10-20",53.96,46.04,531.00,0.00,
"USC00504701","1940-10-21",46.94,41.00,81.00,0.00,
"USC00504701","1940-10-22",50.00,42.08,76.00,0.00,
"USC00504701","1940-10-23",55.04,50.00,0.00,0.00,
"USC00504701","1940-10-24",53.96,48.02,0.00,0.00,
"USC00504701","1940-10-25",51.08,48.02,0.00,0.00,
"USC00504701","1940-10-26",48.92,44.96,117.00,0.00,
"USC00504701","1940-10-27",48.92,46.94,130.00,0.00,
"USC00504701","1940-10-28",51.98,46.94,25.00,0.00,
"USC00504701","1940-10-29",53.06,46.04,3.00,0.00,
"USC00504701","1940-10-30",50.00,41.00,20.00,0.00,
"USC00504701","1940-10-31",48.02,42.08,0.00,0.00,
"USC00504701","1940-11-01",46.04,41.00,0.00,0.00,
"USC00504701","1940-11-02",42.08,39.02,13.00,0.00,
"USC00504701","1940-11-03",41.00,37.94,13.00,0.00,
"USC00504701","1940-11-04",39.02,30.92,0.00,0.00,
"USC00504701","1940-11-05",32.00,21.92,0.00,0.00,
"USC00504701","1940-11-06",30.02,23.00,0.00,0.00,0.00
"USC00504701","1940-11-07",35.06,26.06,0.00,0.00,
"USC00504701","1940-11-08",39.92,37.04,0.00,0.00,
"USC00504701","1940-11-09",42.08,30.02,0.00,0.00,
"USC00504701","1940-11-10",39.92,32.00,0.00,0.00,
"USC00504701","1940-11-11",35.96,33.08,0.00,0.00,
"USC00504701","1940-11-12",41.00,30.02,104.00,0.00,
"USC00504701","1940-11-13",50.00,37.94,305.00,0.00,
"USC00504701","1940-11-14",51.98,44.06,876.00,0.00,
"USC00504701","1940-11-15",46.94,42.08,404.00,0.00,
"USC00504701","1940-11-16",39.92,37.04,160.00,0.00,
"USC00504701","1940-11-17",42.08,35.06,99.00,0.00,
"USC00504701","1940-11-18",48.02,37.94,709.00,0.00,
"USC00504701","1940-11-19",41.00,33.08,224.00,0.00,
"USC00504701","1940-11-20",41.00,33.08,20.00,0.00,
"USC00504701","1940-11-21",44.96,37.94,201.00,0.00,
"USC00504701","1940-11-22",39.92,28.04,0.00,0.00,
"USC00504701","1940-11-23",35.06,23.00,152.00,152.00,152.00
"USC00504701","1940-11-24",39.92,33.08,33.00,0.00,
"USC00504701","1940-11-25",37.94,33.98,13.00,0.00,
"USC00504701","1940-11-26",39.92,33.98,94.00,0.00,
"USC00504701","1940-11-27",41.00,35.96,25.00,0.00,
"USC00504701","1940-11-28",37.94,35.06,0.00,0.00,
"USC00504701","1940-11-29",37.94,30.92,0.00,0.00,
"USC00504701","1940-11-30",39.92,35.06,0.00,0.00,
"USC00504701","1940-12-01",37.94,33.08,135.00,0.00,
"USC00504701","1940-12-02",44.96,35.96,236.00,0.00,
"USC00504701","1940-12-03",48.02,41.00,208.00,0.00,
"USC00504701","1940-12-04",46.04,39.92,30.00,0.00,
"USC00504701","1940-12-05",42.08,39.02,33.00,0.00,
"USC00504701","1940-12-06",44.06,41.00,99.00,0.00,
"USC00504701","1940-12-07",44.96,41.00,178.00,0.00,
"USC00504701","1940-12-08",44.06,37.94,104.00,0.00,
"USC00504701","1940-12-09",44.06,37.04,117.00,0.00,
"USC00504701","1940-12-10",44.96,42.08,241.00,0.00,
"USC00504701","1940-12-11",42.08,33.98,10.00,0.00,
"USC00504701","1940-12-12",33.98,30.02,0.00,0.00,
"USC00504701","1940-12-13",39.02,30.92,8.00,0.00,
"USC00504701","1940-12-14",41.00,32.00,20.00,0.00,
"USC00504701","1940-12-15",39.92,35.96,51.00,0.00,
"USC00504701","1940-12-16",48.92,35.96,0.00,0.00,
"USC00504701","1940-12-17",51.08,42.98,0.00,0.00,
"USC00504701","1940-12-18",48.02,42.98,0.00,0.00,
"USC00504701","1940-12-19",50.00,42.08,0.00,0.00,
"USC00504701","1940-12-20",50.00,42.08,79.00,0.00,
"USC00504701","1940-12-21",46.04,41.00,109.00,0.00,
"USC00504701","1940-12-22",42.08,35.06,0.00,0.00,
"USC00504701","1940-12-23",39.02,33.08,0.00,0.00,
"USC00504701","1940-12-24",35.06,30.92,0.00,0.00,
"USC00504701","1940-12-25",,,0.00,0.00,
"USC00504701","1940-12-26",35.06,26.06,36.00,5.00,0.00
"USC00504701","1940-12-27",39.92,28.94,97.00,0.00,
"USC00504701","1940-12-28",41.00,30.92,147.00,0.00,
"USC00504701","1940-12-29",33.98,28.04,0.00,0.00,
"USC00504701","1940-12-30",32.00,26.06,0.00,0.00,
"USC00504701","1940-12-31",26.96,21.92,0.00,0.00,
"USC00504701","1941-01-01",28.04,19.94,0.00,0.00,
"USC00504701","1941-01-02",35.06,24.08,13.00,0.00,
"USC00504701","1941-01-03",48.92,33.08,0.00,0.00,
"USC00504701","1941-01-04",48.92,39.02,56.00,0.00,
"USC00504701","1941-01-05",44.06,37.04,58.00,0.00,
"USC00504701","1941-01-06",41.00,32.00,0.00,0.00,
"USC00504701","1941-01-07",42.08,35.96,0.00,0.00,
"USC00504701","1941-01-08",41.00,32.00,48.00,20.00,25.00
"USC00504701","1941-01-09",44.06,30.92,142.00,0.00,
"USC00504701","1941-01-10",44.96,39.92,325.00,0.00,
"USC00504701","1941-01-11",44.96,37.94,94.00,0.00,
"USC00504701","1941-01-12",44.96,37.94,51.00,0.00,
"USC00504701","1941-01-13",44.96,30.92,0.00,0.00,
"USC00504701","1941-01-14",44.06,37.94,0.00,0.00,
"USC00504701","1941-01-15",41.00,33.08,0.00,0.00,
"USC00504701","1941-01-16",35.96,30.92,0.00,0.00,
"USC00504701","1941-01-17",37.94,26.96,0.00,0.00,
"USC00504701","1941-01-18",37.94,28.04,51.00,0.00,
"USC00504701","1941-01-19",44.06,35.06,211.00,0.00,
"USC00504701","1941-01-20",42.98,35.06,152.00,0.00,
"USC00504701","1941-01-21",39.02,33.98,0.00,0.00,
"USC00504701","1941-01-22",37.94,30.02,0.00,0.00,
"USC00504701","1941-01-23",30.02,15.08,0.00,0.00,
"USC00504701","1941-01-24",17.96,15.08,0.00,0.00,
"USC00504701","1941-01-25",17.96,12.92,0.00,0.00,
"USC00504701","1941-01-26",32.00,17.06,38.00,25.00,25.00
"USC00504701","1941-01-27",46.04,32.00,371.00,0.00,
"USC00504701","1941-01-28",44.96,39.02,76.00,0.00,
"USC00504701","1941-01-29",46.94,39.02,259.00,0.00,
"USC00504701","1941-01-30",39.92,30.02,10.00,0.00,0.00
"USC00504701","1941-01-31",42.08,30.02,46.00,0.00,
"USC00504701","1941-02-01",39.92,35.06,38.00,0.00,
"USC00504701","1941-02-02",44.06,39.02,56.00,0.00,
"USC00504701","1941-02-03",50.00,42.98,5.00,0.00,
"USC00504701","1941-02-04",51.98,39.92,168.00,0.00,
"USC00504701","1941-02-05",42.08,37.94,249.00,0.00,
"USC00504701","1941-02-06",41.00,30.02,0.00,0.00,
"USC00504701","1941-02-07",44.96,35.96,20.00,0.00,
"USC00504701","1941-02-08",46.04,37.94,10.00,0.00,
"USC00504701","1941-02-09",44.06,37.94,36.00,0.00,
"USC00504701","1941-02-10",42.98,35.96,15.00,0.00,
"USC00504701","1941-02-11",39.92,30.02,13.00,0.00,
"USC00504701","1941-02-12",42.08,33.98,145.00,0.00,
"USC00504701","1941-02-13",44.06,33.98,0.00,0.00,
"USC00504701","1941-02-14",42.98,35.96,56.00,0.00,
"USC00504701","1941-02-15",44.06,37.94,48.00,0.00,
"USC00504701","1941-02-16",42.98,37.94,13.00,0.00,
"USC00504701","1941-02-17",42.08,32.00,0.00,0.00,
"USC00504701","1941-02-18",51.08,37.04,0.00,0.00,
"USC00504701","1941-02-19",50.00,42.08,0.00,0.00,
"USC00504701","1941-02-20",42.98,33.08,0.00,0.00,
"USC00504701","1941-02-21",37.94,26.96,0.00,0.00,
"USC00504701","1941-02-22",37.04,28.94,0.00,0.00,
"USC00504701","1941-02-23",37.04,28.04,0.00,0.00,
"USC00504701","1941-02-24",35.06,26.06,0.00,0.00,
"USC00504701","1941-02-25",33.08,17.96,0.00,0.00,
"USC00504701","1941-02-26",24.98,17.96,0.00,0.00,
"USC00504701","1941-02-27",28.04,19.94,0.00,0.00,
"USC00504701","1941-02-28",39.02,26.96,0.00,0.00,
"USC00504701","1941-03-01",39.92,32.00,0.00,0.00,
"USC00504701","1941-03-02",39.92,28.04,0.00,0.00,
"USC00504701","1941-03-03",42.98,30.02,0.00,0.00,
"USC00504701","1941-03-04",44.06,37.94,0.00,0.00,
"USC00504701","1941-03-05",46.94,39.92,107.00,0.00,
"USC00504701","1941-03-06",42.98,33.08,198.00,0.00,
"USC00504701","1941-03-07",42.08,33.08,127.00,0.00,
"USC00504701","1941-03-08",42.98,35.06,160.00,0.00,
"USC00504701","1941-03-09",44.06,37.94,297.00,0.00,
"USC00504701","1941-03-10",50.00,39.92,20.00,0.00,
"USC00504701","1941-03-11",51.08,39.92,147.00,0.00,
"USC00504701","1941-03-12",42.98,33.98,84.00,0.00,
"USC00504701","1941-03-13",44.06,37.04,518.00,0.00,
"USC00504701","1941-03-14",42.98,39.92,627.00,0.00,
"USC00504701","1941-03-15",44.96,39.92,206.00,0.00,
"USC00504701","1941-03-16",44.06,39.92,43.00,0.00,
"USC00504701","1941-03-17",44.96,37.04,112.00,0.00,
"USC00504701","1941-03-18",46.94,37.94,0.00,0.00,
"USC00504701","1941-03-19",48.02,37.94,20.00,0.00,
"USC00504701","1941-03-20",46.94,42.08,13.00,0.00,
"USC00504701","1941-03-21",48.92,37.94,10.00,0.00,
"USC00504701","1941-03-22",46.94,35.06,10.00,0.00,
"USC00504701","1941-03-23",46.04,41.00,5.00,0.00,
"USC00504701","1941-03-24",46.04,42.08,178.00,0.00,
"USC00504701","1941-03-25",46.04,42.08,142.00,0.00,
"USC00504701","1941-03-26",55.04,41.00,0.00,0.00,
"USC00504701","1941-03-27",51.98,44.06,8.00,0.00,
"USC00504701","1941-03-28",44.96,37.04,135.00,0.00,
"USC00504701","1941-03-29",44.06,30.02,0.00,0.00,
"USC00504701","1941-03-30",48.02,33.08,3.00,0.00,
"USC00504701","1941-03-31",44.96,33.08,8.00,0.00,
"USC00504701","1941-04-01",51.08,42.08,8.00,,
"USC00504701","1941-04-02",55.04,42.98,5.00,,
"USC00504701","1941-04-03",57.02,37.04,89.00,,
"USC00504701","1941-04-04",57.02,39.92,0.00,,
"USC00504701","1941-04-05",57.92,39.02,0.00,,
"USC00504701","1941-04-06",51.98,39.92,64.00,,
"USC00504701","1941-04-07",51.98,39.92,38.00,,
"USC00504701","1941-04-08",51.08,44.06,152.00,,
"USC00504701","1941-04-09",48.92,41.00,185.00,,
"USC00504701","1941-04-10",48.92,33.08,15.00,,
"USC00504701","1941-04-11",48.92,39.92,89.00,,
"USC00504701","1941-04-12",44.96,35.96,229.00,,
"USC00504701","1941-04-13",46.94,42.08,290.00,,
"USC00504701","1941-04-14",44.06,39.02,48.00,,
"USC00504701","1941-04-15",44.06,39.02,66.00,,
"USC00504701","1941-04-16",44.96,39.92,38.00,,
"USC00504701","1941-04-17",46.94,41.00,46.00,,
"USC00504701","1941-04-18",48.92,35.96,3.00,,
"USC00504701","1941-04-19",53.96,37.04,0.00,,
"USC00504701","1941-04-20",46.94,41.00,66.00,,
"USC00504701","1941-04-21",51.08,37.04,0.00,,
"USC00504701","1941-04-22",51.08,42.08,58.00,,
"USC00504701","1941-04-23",46.04,39.92,30.00,,
"USC00504701","1941-04-24",46.94,42.08,74.00,,
"USC00504701","1941-04-25",55.94,44.06,188.00,,
"USC00504701","1941-04-26",55.94,44.06,74.00,,
"USC00504701","1941-04-27",51.08,42.98,28.00,,
"USC00504701","1941-04-28",48.92,41.00,130.00,,
"USC00504701","1941-04-29",50.00,39.92,23.00,,
"USC00504701","1941-04-30",51.08,37.04,0.00,,
"USC00504701","1941-05-01",51.98,39.02,71.00,0.00,
"USC00504701","1941-05-02",55.94,44.96,0.00,0.00,
"USC00504701","1941-05-03",55.94,44.96,168.00,0.00,
"USC00504701","1941-05-04",60.08,42.08,0.00,0.00,
"USC00504701","1941-05-05",60.08,37.94,0.00,0.00,
"USC00504701","1941-05-06",57.92,44.06,0.00,0.00,
"USC00504701","1941-05-07",51.08,42.08,0.00,0.00,
"USC00504701","1941-05-08",50.00,39.92,64.00,0.00,
"USC00504701","1941-05-09",50.00,41.00,3.00,0.00,
"USC00504701","1941-05-10",55.04,37.94,0.00,0.00,
"USC00504701","1941-05-11",53.96,39.92,0.00,0.00,
"USC00504701","1941-05-12",51.08,42.98,0.00,0.00,
"USC00504701","1941-05-13",50.00,42.98,0.00,0.00,
"USC00504701","1941-05-14",48.92,42.08,175.00,0.00,
"USC00504701","1941-05-15",51.08,39.92,81.00,0.00,
"USC00504701","1941-05-16",51.08,41.00,61.00,0.00,
"USC00504701","1941-05-17",50.00,39.92,38.00,0.00,
"USC00504701","1941-05-18",50.00,41.00,66.00,0.00,
"USC00504701","1941-05-19",44.96,39.92,282.00,0.00,
"USC00504701","1941-05-20",46.04,39.92,368.00,0.00,
"USC00504701","1941-05-21",50.00,42.08,25.00,0.00,
"USC00504701","1941-05-22",50.00,44.06,8.00,0.00,
"USC00504701","1941-05-23",51.08,42.98,74.00,0.00,
"USC00504701","1941-05-24",51.08,46.04,0.00,0.00,
"USC00504701","1941-05-25",53.96,46.04,25.00,0.00,
"USC00504701","1941-05-26",,,0.00,0.00,
"USC00504701","1941-05-27",,,0.00,0.00,
"USC00504701","1941-05-28",64.04,44.06,0.00,0.00,
"USC00504701","1941-05-29",64.04,46.04,0.00,0.00,
"USC00504701","1941-05-30",57.92,46.04,0.00,0.00,
"USC00504701","1941-05-31",60.98,46.94,0.00,0.00,
"USC00504701","1941-06-01",69.98,46.94,0.00,,
"USC00504701","1941-06-02",66.92,50.00,0.00,,
"USC00504701","1941-06-03",57.02,50.00,0.00,,
"USC00504701","1941-06-04",64.04,50.00,0.00,,
"USC00504701","1941-06-05",64.04,53.96,0.00,,
"USC00504701","1941-06-06",60.08,51.98,66.00,,
"USC00504701","1941-06-07",57.02,50.00,0.00,,
"USC00504701","1941-06-08",59.00,46.94,15.00,,
"USC00504701","1941-06-09",57.92,48.02,56.00,,
"USC00504701","1941-06-10",59.00,46.94,114.00,,
"USC00504701","1941-06-11",57.92,50.00,173.00,,
"USC00504701","1941-06-12",53.96,46.94,102.00,,
"USC00504701","1941-06-13",57.92,44.06,0.00,,
"USC00504701","1941-06-14",59.00,48.92,8.00,,
"USC00504701","1941-06-15",59.00,48.02,0.00,,
"USC00504701","1941-06-16",60.08,44.96,0.00,,
"USC00504701","1941-06-17",57.92,46.04,0.00,,
"USC00504701","1941-06-18",57.92,46.94,5.00,,
"USC00504701","1941-06-19",57.92,46.04,0.00,,
"USC00504701","1941-06-20",60.08,48.02,28.00,,
"USC00504701","1941-06-21",62.06,46.04,0.00,,
"USC00504701","1941-06-22",71.06,48.02,0.00,,
"USC00504701","1941-06-23",68.00,48.02,5.00,,
"USC00504701","1941-06-24",55.94,44.96,142.00,,
"USC00504701","1941-06-25",57.02,51.08,46.00,,
"USC00504701","1941-06-26",57.02,51.08,8.00,,
"USC00504701","1941-06-27",57.92,51.98,157.00,,
"USC00504701","1941-06-28",55.04,51.98,185.00,,
"USC00504701","1941-06-29",57.92,51.98,213.00,,
"USC00504701","1941-06-30",60.08,51.08,94.00,,
"USC00504701","1941-07-01",68.00,50.00,8.00,0.00,
"USC00504701","1941-07-02",73.04,51.98,71.00,0.00,
"USC00504701","1941-07-03",62.06,50.00,25.00,0.00,
"USC00504701","1941-07-04",,,0.00,0.00,
"USC00504701","1941-07-05",64.04,51.98,127.00,0.00,
"USC00504701","1941-07-06",60.08,44.96,0.00,0.00,
"USC00504701","1941-07-07",60.08,48.02,0.00,0.00,
"USC00504701","1941-07-08",60.08,51.98,53.00,0.00,
"USC00504701","1941-07-09",60.08,53.06,10.00,0.00,
"USC00504701","1941-07-10",60.08,51.98,3.00,0.00,
"USC00504701","1941-07-11",57.02,53.06,170.00,0.00,
"USC00504701","1941-07-12",57.02,51.08,226.00,0.00,
"USC00504701","1941-07-13",60.98,55.04,452.00,0.00,
"USC00504701","1941-07-14",62.96,55.94,765.00,0.00,
"USC00504701","1941-07-15",69.98,55.04,48.00,0.00,
"USC00504701","1941-07-16",69.08,57.02,30.00,0.00,
"USC00504701","1941-07-17",59.00,53.96,69.00,0.00,
"USC00504701","1941-07-18",59.00,51.08,23.00,0.00,
"USC00504701","1941-07-19",57.92,51.08,0.00,0.00,
"USC00504701","1941-07-20",64.04,51.08,0.00,0.00,
"USC00504701","1941-07-21",64.04,53.06,236.00,0.00,
"USC00504701","1941-07-22",59.00,51.98,10.00,0.00,
"USC00504701","1941-07-23",57.92,55.04,8.00,0.00,
"USC00504701","1941-07-24",55.94,53.96,160.00,0.00,
"USC00504701","1941-07-25",55.94,53.96,79.00,0.00,
"USC00504701","1941-07-26",59.00,53.96,41.00,0.00,
"USC00504701","1941-07-27",,,0.00,0.00,
"USC00504701","1941-07-28",60.08,50.00,109.00,0.00,
"USC00504701","1941-07-29",57.92,51.98,56.00,0.00,
"USC00504701","1941-07-30",57.92,50.00,18.00,0.00,
"USC00504701","1941-07-31",59.00,51.08,0.00,0.00,
"USC00504701","1941-08-01",60.98,51.08,0.00,0.00,
"USC00504701","1941-08-02",69.08,48.02,0.00,0.00,
"USC00504701","1941-08-03",69.08,46.94,0.00,0.00,
"USC00504701","1941-08-04",62.06,46.94,0.00,0.00,
"USC00504701","1941-08-05",,,0.00,0.00,
"USC00504701","1941-08-06",62.96,51.98,0.00,0.00,
"USC00504701","1941-08-07",64.94,53.96,0.00,0.00,
"USC00504701","1941-08-08",62.06,53.96,0.00,0.00,
"USC00504701","1941-08-09",60.08,55.04,41.00,0.00,
"USC00504701","1941-08-10",57.92,53.96,36.00,0.00,
"USC00504701","1941-08-11",62.96,53.06,20.00,0.00,
"USC00504701","1941-08-12",62.96,53.06,0.00,0.00,
"USC00504701","1941-08-13",64.04,55.94,61.00,0.00,
"USC00504701","1941-08-14",66.02,51.08,0.00,0.00,
"USC00504701","1941-08-15",62.06,55.04,0.00,0.00,
"USC00504701","1941-08-16",62.06,55.04,0.00,0.00,
"USC00504701","1941-08-17",62.06,55.94,43.00,0.00,
"USC00504701","1941-08-18",62.96,51.08,0.00,0.00,
"USC00504701","1941-08-19",69.98,51.08,0.00,0.00,
"USC00504701","1941-08-20",64.94,55.94,64.00,0.00,
"USC00504701","1941-08-21",66.92,55.94,147.00,0.00,
"USC00504701","1941-08-22",69.98,59.00,0.00,0.00,
"USC00504701","1941-08-23",71.96,55.94,0.00,0.00,
"USC00504701","1941-08-24",69.08,59.00,0.00,0.00,
"USC00504701","1941-08-25",75.02,51.08,0.00,0.00,
"USC00504701","1941-08-26",75.02,55.94,0.00,0.00,
"USC00504701","1941-08-27",71.96,53.06,0.00,0.00,
"USC00504701","1941-08-28",64.94,55.94,0.00,0.00,
"USC00504701","1941-08-29",60.98,46.04,0.00,0.00,
"USC00504701","1941-08-30",62.06,48.92,8.00,0.00,
"USC00504701","1941-08-31",62.06,42.08,0.00,0.00,
"USC00504701","1941-09-01",,,0.00,0.00,
"USC00504701","1941-09-02",60.98,44.96,0.00,0.00,
"USC00504701","1941-09-03",64.04,51.08,0.00,0.00,
"USC00504701","1941-09-04",62.06,48.02,30.00,0.00,
"USC00504701","1941-09-05",60.08,48.92,112.00,0.00,
"USC00504701","1941-09-06",60.98,51.08,0.00,0.00,
"USC00504701","1941-09-07",60.98,51.08,61.00,0.00,
"USC00504701","1941-09-08",57.02,50.00,99.00,0.00,
"USC00504701","1941-09-09",69.98,48.02,0.00,0.00,
"USC00504701","1941-09-10",69.08,44.06,0.00,0.00,
"USC00504701","1941-09-11",69.98,51.08,0.00,0.00,
"USC00504701","1941-09-12",64.94,51.08,168.00,0.00,
"USC00504701","1941-09-13",60.08,51.08,0.00,0.00,
"USC00504701","1941-09-14",59.00,37.94,0.00,0.00,
"USC00504701","1941-09-15",55.04,46.94,20.00,0.00,
"USC00504701","1941-09-16",69.08,44.06,0.00,0.00,
"USC00504701","1941-09-17",62.96,42.98,0.00,0.00,
"USC00504701","1941-09-18",62.06,44.06,0.00,0.00,
"USC00504701","1941-09-19",59.00,39.02,0.00,0.00,
"USC00504701","1941-09-20",55.04,46.04,234.00,0.00,
"USC00504701","1941-09-21",51.08,44.96,229.00,0.00,
"USC00504701","1941-09-22",55.94,48.92,168.00,0.00,
"USC00504701","1941-09-23",60.08,50.00,0.00,0.00,
"USC00504701","1941-09-24",59.00,51.98,206.00,0.00,
"USC00504701","1941-09-25",57.02,51.98,180.00,0.00,
"USC00504701","1941-09-26",55.94,46.94,74.00,0.00,
"USC00504701","1941-09-27",53.96,46.94,224.00,0.00,
"USC00504701","1941-09-28",55.04,44.06,0.00,0.00,
"USC00504701","1941-09-29",53.96,44.96,0.00,0.00,
"USC00504701","1941-09-30",53.96,48.02,51.00,0.00,
"USC00504701","1941-10-01",53.96,44.96,0.00,0.00,
"USC00504701","1941-10-02",55.04,46.94,511.00,0.00,
"USC00504701","1941-10-03",53.96,46.94,300.00,0.00,
"USC00504701","1941-10-04",53.06,35.06,5.00,0.00,
"USC00504701","1941-10-05",53.06,46.04,112.00,0.00,
"USC00504701","1941-10-06",51.08,42.08,53.00,0.00,
"USC00504701","1941-10-07",51.98,41.00,0.00,0.00,
"USC00504701","1941-10-08",48.92,42.08,0.00,0.00,
"USC00504701","1941-10-09",48.02,35.06,0.00,0.00,
"USC00504701","1941-10-10",,,5.00,0.00,
"USC00504701","1941-10-11",48.92,41.00,84.00,0.00,
"USC00504701","1941-10-12",48.02,39.92,94.00,0.00,
"USC00504701","1941-10-13",48.92,42.08,330.00,0.00,
"USC00504701","1941-10-14",46.94,39.92,102.00,0.00,
"USC00504701","1941-10-15",46.94,42.08,58.00,0.00,
"USC00504701","1941-10-16",,,0.00,0.00,
"USC00504701","1941-10-17",,,0.00,0.00,
"USC00504701","1941-10-18",53.96,44.96,610.00,0.00,
"USC00504701","1941-10-19",46.94,39.92,140.00,0.00,
"USC00504701","1941-10-20",50.00,42.08,305.00,0.00,
"USC00504701","1941-10-21",48.92,42.98,152.00,0.00,
"USC00504701","1941-10-22",46.04,39.92,399.00,0.00,
"USC00504701","1941-10-23",48.02,41.00,69.00,0.00,
"USC00504701","1941-10-24",51.08,44.06,269.00,0.00,
"USC00504701","1941-10-25",50.00,42.08,99.00,0.00,
"USC00504701","1941-10-26",48.92,35.96,0.00,0.00,
"USC00504701","1941-10-27",51.08,42.98,0.00,0.00,
"USC00504701","1941-10-28",51.08,42.98,0.00,0.00,
"USC00504701","1941-10-29",50.00,44.06,203.00,0.00,
"USC00504701","1941-10-30",48.92,44.06,389.00,0.00,
"USC00504701","1941-10-31",,,183.00,0.00,
"USC00504701","1941-11-01",46.94,39.92,262.00,0.00,
"USC00504701","1941-11-02",44.96,35.06,0.00,0.00,
"USC00504701","1941-11-03",42.98,35.06,0.00,0.00,
"USC00504701","1941-11-04",41.00,30.92,8.00,0.00,
"USC00504701","1941-11-05",42.08,32.00,43.00,0.00,
"USC00504701","1941-11-06",50.00,39.02,91.00,0.00,
"USC00504701","1941-11-07",48.92,44.06,272.00,0.00,
"USC00504701","1941-11-08",44.96,39.02,51.00,0.00,
"USC00504701","1941-11-09",44.96,39.02,48.00,0.00,
"USC00504701","1941-11-10",51.98,42.08,160.00,0.00,